Volver al catálogo

THORAD DELTA 1 DEB

ActivoSSO
NORAD 8406·DEBRIS·🇺🇸 United States

Lanzado Nov 15, 1974 desde Vandenberg Space Force Base

Loading…

Próximos Pases (próximas 24 horas)

TLE

ActualizadoSource: Space-Track

Época: Sep 13, 2026, 12:12 UTC

1 08406U 74089CJ  26256.50900499  .00000073  00000-0  68359-3 0  9997
2 08406 101.2966 111.8353 0021140   8.8334  62.2777 12.57925165373143

Sigue THORAD DELTA 1 DEB en tiempo real con AllMySat

Download on the App Store